Hourly Weather Roundup
Issued by NWS

Home | Current Version | Previous Version | Text Only | Print | Product List | Glossary On
Versions: 1 2 3 4 5 6 7 8 9 10 11 12 13 14 15 16 17 18 19 20 21 22 23 24 25 26 27 28 29 30 31 32 33 34 35 36 37 38 39 40 41 42 43 44 45 46 47 48 49 50
000
NZUS43 KILX 010510
HWRCRS

CRS HOURLY WEATHER ROUNDUP
NATIONAL WEATHER SERVICE, LINCOLN IL
1200 AM CDT THU SEP 01 2016


CITY           SKY/WX    TMP DP  RH WIND       PRES   REMARKS
CHAMPAIGN      CLEAR     65  57  75 N10       30.09R
LAWRENCEVILLE  MOCLDY    70  64  81 N13       30.03R
PEORIA         CLEAR     64  61  90 N3        30.12R
SPRINGFIELD    CLEAR     66  60  81 NE7       30.10R
$$


CITY           SKY/WX    TMP DP  RH WIND       PRES   REMARKS
BLOOMINGTON    CLEAR     60  56  86 N8        30.11S
DECATUR        CLEAR     62  58  86 N7        30.09S
EFFINGHAM      CLEAR     67  62  83 N6        30.08R
FLORA          CLOUDY    72  65  79 N9        30.05R
GALESBURG      CLEAR     59  58  96 N3        30.13S
JACKSONVILLE   PTCLDY    67  64  91 NE6       30.10R
LACON          CLEAR     60  57  88 CALM      30.12R
LINCOLN        CLEAR     63  60  88 N3        30.10S
LITCHFIELD     PTCLDY    67  62  83 NE10G17   30.08R

CITY           SKY/WX    TMP DP  RH WIND       PRES   REMARKS
MACOMB         CLEAR     62  60  94 N5        30.14S
MATTOON        CLEAR     63  59  87 N5        30.07S
MOLINE         CLEAR     62  58  86 CALM      30.13R
OLNEY          CLOUDY    70  64  83 N8        30.04S
PARIS          CLOUDY    62  60  94 CALM      30.07S
PONTIAC        CLEAR     61  59  94 N5        30.12S
QUINCY         CLOUDY    63  61  93 NE6       30.11S
RANTOUL        CLEAR     65  59  80 N7        30.09S
ROBINSON       MOCLDY    66  61  84 N9G17     30.05S
TAYLORVILLE    PTCLDY    66  59  79 NE8       30.09S
TERRE HAUTE    MOCLDY    65  60  84 N6        30.05S
$$


CITY           SKY/WX    TMP DP  RH WIND       PRES   REMARKS
BURLINGTON     CLEAR     63  60  90 N8        30.13R
CHICAGO        CLEAR     64  56  75 N8        30.11R
DES MOINES     CLEAR     69  58  67 NE5       30.16S
EVANSVILLE     CLOUDY    76  70  82 N12       30.00R
INDIANAPOLIS   MOCLDY    67  60  78 N9        30.02S
KANSAS CITY    PTCLDY    67  61  81 NE6       30.14R
MILWAUKEE      CLEAR     65  57  75 N6        30.14R
ST LOUIS       MOCLDY    74  67  78 NE8       30.07R
$$





USA.gov is the U.S. government's official web portal to all federal, state and local government web resources and services.